Regional Weather Roundup
Issued by NWS Wakefield, VA

Home | Current Version | Previous Version | Text Only | Print | Product List | Glossary Off
Versions: 1 2 3 4 5 6 7 8 9 10 11 12 13 14 15 16 17 18 19 20 21 22 23 24 25 26 27 28 29 30 31 32 33 34 35 36 37 38 39 40 41 42 43 44 45 46 47 48 49 50

000
ASUS41 KAKQ 211016
RWRAKQ

REGIONAL WEATHER ROUNDUP
NATIONAL WEATHER SERVICE WAKEFIELD VA
600 AM EDT THU SEP 21 2017

Note: "fair" indicates few or no clouds below 12,000 feet with no
significant weather and/or obstructions to visibility. * = Denotes
station may not report precipitation (e.g., rain,snow,etc.),
thunder or fog.

VAZ042-051-052>054-056-211100-
NORTHERN VIRGINIA

CITY           SKY/WX    TMP DP  RH WIND       PRES   REMARKS
WASH NATIONAL  CLEAR     68  62  81 N6        30.03R
DULLES         CLEAR     62  61  96 N3        30.04R
FORT BELVOIR   CLEAR     62  61  95 CALM      30.02R
QUANTICO       CLEAR     67  62  84 CALM      30.03R
FREDERICKSBRG* CLEAR     62  62 100 CALM      30.02R
STAFFORD*      CLEAR     58  58 100 CALM      30.07R
WARRENTON      FOG       55  52  90 CALM      30.03S VSB 1/2
CULPEPER*      CLEAR     62  60  96 N3        30.05R
MANASSAS*      CLEAR     57  57 100 CALM      30.04R
LEESBURG*      CLEAR     68  63  83 N3        30.06R
WINCHESTER     CLEAR     55  55 100 CALM      30.07R FOG
FRONT ROYAL*   MOSUNNY   59  59 100 CALM      30.06R
LURAY*         FOG       59  59 100 CALM      30.08R VSB 1/4
$$

VAZ048-049-060>072-079>083-211100-
CENTRAL AND SOUTH CENTRAL VIRGINIA

CITY           SKY/WX    TMP DP  RH WIND       PRES   REMARKS
RICHMOND       PTCLDY    67  65  93 NW3       30.01R
CHESTERFIELD*  NOT AVBL
PETERSBURG*    CLEAR     61  61 100 CALM      30.01R
HANOVER        PTCLDY    63  62  97 CALM      30.02R
TAPPAHANNOCK*  PTCLDY   N/A N/A N/A CALM      30.01R
QUINTON*       FAIR      61  61 100 CALM      30.00R
CHARLOTTSVILLE PTCLDY    67  65  93 CALM      30.05R
GORDONSVILLE*  SUNNY     62  62 100 CALM      30.04R
ORANGE*        PTCLDY    61  61 100 CALM      30.05R
LOUISA*        CLEAR     64  63  94 N5        30.03R
BUMPASS*       NOT AVBL
FARMVILLE*     MOCLDY    65  65 100 CALM      30.02R
CREWE*         FAIR      64  64 100 CALM      30.02R
FORT PICKETT*  FAIR      65  65 100 W7        30.03R
CHASE CITY*    PTSUNNY   65  65 100 W3        30.03R
CLARKSVILLE*   FAIR      64  64 100 CALM      30.02R
SOUTH HILL*    PTCLDY    67  66  97 CALM      30.07S
LAWRENCEVILLE* FAIR      66  65  96 CALM      30.01S
EMPORIA*       CLEAR     63  63 100 CALM      30.02S FOG
$$

VAZ088>098-211100-
SOUTHEAST VIRGINIA

CITY           SKY/WX    TMP DP  RH WIND       PRES   REMARKS
NORFOLK        CLEAR     69  67  93 CALM      29.98R
VIRGINIA BEACH CLEAR     64  62  93 CALM      29.97R
NORFOLK NAVAL  PTCLDY    68  65  90 W3        30.00R
WEST POINT*    NOT AVBL
SALUDA*        FAIR      63  63 100 CALM      29.99R
NEWPORT NEWS   CLEAR     65  63  93 CALM      29.99R
LANGLEY AFB    CLEAR     67  67 100 CALM      29.98R
FORT EUSTIS    CLEAR     69  68  94 NW7       29.97R FOG
WILLIAMSBURG*  CLEAR     66  64  94 CALM      30.00S
HR EXEC AP*    FAIR      58  57  97 CALM      30.00R
FRANKLIN*      CLEAR     62  61  96 CALM      30.00S
US460-WAKEFLD  CLEAR     62  62 100 CALM      30.00R
$$

VAZ020-022-025-037-045-211100-
WEST CENTRAL AND SOUTHWEST VIRGINIA

CITY           SKY/WX    TMP DP  RH WIND       PRES   REMARKS
STAUNTON*      FOG       56  56 100 CALM      30.11S VSB 1/2
WAYNESBORO*    SUNNY     59  59 100 SW3       30.10R
HOT SPRINGS VA CLOUDY    64  58  82 N5        30.21S
LYNCHBURG      CLEAR     65  63  93 N3        30.06R
DANVILLE       CLEAR     62  62 100 CALM      30.04R
SOUTH BOSTON*  FAIR      62  60  95 CALM      30.04R
MARTINSVILLE   CLEAR     59  59  98 CALM      30.08S FOG
ROANOKE        CLEAR     67  64  90 NE6       30.11R
BLACKSBURG     CLEAR     60  60 100 CALM      30.16R FOG
DUBLIN*        PTCLDY    62  61  98 CALM      30.15R
MARION*        PTCLDY    58  55  91 CALM      30.18S
HILLSVILLE*    CLEAR     60  56  85 CALM      30.15R
RICHLANDS*     FAIR      62  60  93 CALM      30.17S
WISE*          PTCLDY    63  63 100 CALM      30.18S
ABINGDON*      CLEAR     61  61 100 E3        30.15R
$$

MDZ021>025-VAZ099-100-211100-
SOUTHERN MARYLAND AND THE DELMARVA PENINSULA

CITY           SKY/WX    TMP DP  RH WIND       PRES   REMARKS
PATUXENT RIVER CLEAR     66  65  96 CALM      30.00R
BAY BRIDGE APT CLEAR     70  64  83 N5        30.00R
LEONARDTOWN    CLEAR     61  59  94 CALM      30.02R
DOVER          PTCLDY    66 N/A N/A NW5       29.98R
GEORGETOWN     MOCLDY    66  64  93 CALM      30.00R
EASTON         CLEAR     68  66  94 CALM      30.04R
CAMBRIDGE      CLEAR     66  66 100 CALM      29.99R
SALISBURY      CLEAR     65  65 100 CALM      29.99R
OCEAN CITY     PTCLDY   N/A N/A N/A NW5       29.99R
WALLOPS ISLAND CLEAR     65  65 100 NW6       29.99R
ACCOMACK*      FOG       64  64  99 CALM      29.98R VSB 1/2
$$

NCZ012>017-030>032-211100-
NORTH CENTRAL AND EASTERN NORTH CAROLINA

CITY           SKY/WX    TMP DP  RH WIND       PRES   REMARKS
ROANOKE RAPIDS PTSUNNY   68  68 100 MISG      30.00R
RALEIGH        PTCLDY    68  66  93 CALM      30.02R
ELIZABETH CITY CLEAR     65  65 100 W5        29.99R FOG
AHOSKIE*         N/A     65  65 100 CALM      29.99S
EDENTON*       CLEAR     67  65  94 CALM      29.99S FOG
CURRITUCK*     CLEAR     65  64  97 CALM      29.99S
KILL DEVIL HLS CLEAR     70  69  99 CALM      29.96S
MANTEO         CLEAR     67  66  96 CALM      29.98S
CAPE HATTERAS  CLEAR     70  69  97 CALM      29.98R FOG
TARBORO*       NOT AVBL
GOLDSBORO      PTCLDY    67  67 100 CALM      29.99R
WASHINGTON     CLEAR     69  68  97 CALM      29.99R FOG
GREENVILLE     CLEAR     68  68 100 CALM      30.00S FOG
NEW BERN       CLEAR     69  68  96 CALM      30.00S
WILMINGTON     CLEAR     73  71  93 W6        29.99R
$$

VAZ048-211100-
ELSEWHERE

CITY           SKY/WX    TMP DP  RH WIND       PRES   REMARKS
HARRISBURG PA  CLOUDY    67  63  87 NW9       30.05R
BALTIMORE      CLEAR     61  61 100 W3        30.02R
ANNAPOLIS      CLEAR     72  69  90 NW5       30.00R
ANDREWS AFB    CLEAR     64  59  84 NW3       30.02R
PHILADELPHIA   MOCLDY    71  63  75 N7        30.01R
HENDERSON NC   CLEAR     62  60  94 CALM      30.02R
GREENSBORO     PTCLDY    68  65  90 N5        30.04R
ROCKY MOUNT    CLEAR     67  67 100 CALM      30.00S FOG
$$

VAZ100-211100-
MARINE

STATION/POSITION TIME  TEMP    WIND        PRES    WAVE   SWELL
                       AIR SEA DIR/SP/G            HT/PER HT/PER
                 (UTC) (F)     (DEG/KT/KT) (MB)    (FT/S) (FT/S)
BRANDYWINE LGT   0942   74     350/ 11/ 13 1015.6R
CAPE MAY NJ      0948   74 73  360/  3/  6 1014.7R
LEWES DE         0948   73 73  320/  7/  8 1015.0R
15NM E FENWICK I 0950   74 71  320/ 12/ 12 1015.2R   6/10   7/10
OCEAN-CITY-INLET 0948   71 74   10/  3/  4 1015.6R
WACHAPREAGUE VA  0948   70 75  330/  2/  4 1015.2R
THOMAS POINT MD  1000   72 75  350/  9/ 10   N/A
GOOSES REEF MD   1000   74 75   30/  8/ 10 1016.5    2
COVE POINT MD    0948   72     350/  7/  9 1016.4R
SOLOMONS ISLAND  0948   70 76  310/  3/  5 1015.4R
BISHOPS HEAD MD  0948   71 76  330/  3/  4 1015.8R
PINEY POINT MD   0942          360/  9/  9   N/A
POTOMAC MD       1000   73 75  320/  8/  8 1014.9
CAMBRIDGE MD     0948   69 75              1016.5R
LEWISETTA VA     0948   69 76  310/  4/  5 1015.5R
RAPPAHANNOCK LGT 0948          330/  7/  8 1015.7R
STINGRAY PT      1000   74 75  330/  8/  8 1015.7    0
YORK RVR RNG VA  0948   71     340/  6/  7 1015.7R
YORKTOWN VA      0948   70 76  240/  4/  5 1015.0R
JAMESTOWN VA     1000      77  350/  4/  4   N/A     0
DOMINION TERM VA 0948   74      CALM  /  4 1015.4R
KIPTOPEKE VA     0948      75  340/  7/  8   N/A
CHES BAY BRIDGE  0948   74 75  300/  7/  8 1015.1R
CAPE HENRY VA    0948   73     280/  8/  9   N/A
WILLOUBY STN VA  0942   73     330/  4/  4 1015.3R
S CRANEY ISL VA  0948   70     300/  3/  3 1015.1R
CAPE HENRY BUOY  0930      74                N/A     3/10   2/11
1ST LANDING BUOY 1000   74 75              1015.1    2/ 7
64NM E OF VA BCH 0950   70 70  330/  4/  6 1015.1R   7/11   7/11
DUCK PIER NC     0948   74 75  260/  6/  6 1014.6R
44100 DUCK FRF   0905      74                N/A     4/10   2/11
44056 DUCK FRF   0930      75                N/A     4/11   2/11
OREGON INLET NC  0942   74 77  270/  3/  4 1014.8R
HATTERAS NC      0948   76 77  350/  5/  5 1015.0R
DIAMOND SHLS NC  0950   76 75  340/  2/  4 1014.9R   4/10   5/10
CAPE LOOKOUT NC  1000   76     310/  8/ 10 1015.1R
$$



USA.gov is the U.S. government's official web portal to all federal, state and local government web resources and services.